SCP
0 0 0 0 0 0 0 0 0 0 0 0 0 0 0 0 0 0 0 0 0 0 0 0 0 0 0 0 0 0 0 0 0 0 0 0 0 0 0 0 0 0 0 0 0 0 0 0 0 0 0 0 0 0
0 0 0 0 0 0 0 0 0 0 0 0 0 0 0 0 0 0 0 0 0 0 0 0 0 0 0 0 0 0 0 0 0 0 0 0 0 0 0 0 0 0 0 0 0 0 0 0 0 0 0 0 0 0
0 0 0 0 0 0 0 0 0 0 0 0 0 0 0 0 0 0 0 0 0 0 0 0 0 0 0 0 0 0 0 0 0 0 0 0 0 0 0 0 0 0 0 0 0 0 0 0 0 0 0 0 0 0
0 0 0 0 0 0 0 0 0 0 0 0 0 0 0 0 0 0 0 0 0 0 0 0 0 0 0 0 0 0 0 0 0 0 0 0 0 0 0 0 0 0 0 0 0 0 0 0 0 0 0 0 0 0
0 0 0 0 0 0 0 0 0 0 0 0 0 0 0 0 0 0 0 0 0 0 0 0 0 0 0 0 0 0 0 0 0 0 0 0 0 0 0 0 0 0 0 0 0 0 0 0 0 0 0 0 0 0
0 0 0 0 0 0 0 0 0 0 0 0 0 0 0 0 0 0 0 0 0 0 0 0 0 0 0 0 0 0 0 0 0 0 0 0 0 0 0 0 0 0 0 0 0 0 0 0 0 0 0 0 0 0
0 0 0 0 0 0 0 0 0 0 0 0 0 0 0 0 0 0 0 0 0 0 0 0 0 0 0 0 0 0 0 0 0 0 0 0 0 0 0 0 0 0 0 0 0 0 0 0 0 0 0 0 0 0
0 0 0 0 0 0 0 0 0 0 0 0 0 0 0 0 0 0 0 0 0 0 0 0 0 0 0 0 0 0 0 0 0 0 0 0 0 0 0 0 0 0 0 0 0 0 0 0 0 0 0 0 0 0
0 0 0 0 0 0 0 0 0 0 0 0 0 0 0 0 0 0 0 0 0 0 0 0 0 0 0 0 0 0 0 0 0 0 0 0 0 0 0 0 0 0 0 0 0 0 0 0 0 0 0 0 0 0
0 0 0 0 0 0 0 0 0 0 0 0 0 0 0 0 0 0 0 0 0 0 0 0 0 0 0 0 0 0 0 0 0 0 0 0 0 0 0 0 0 0 0 0 0 0 0 0 0 0 0 0 0 0
-0 -0 -0 0 0 0 0 0 0 0 0 0 0 0 0 0 0 0 0 0 0 0 0 0 0 0 0 0 0 0 0 0 0 0 0 0 0 0 0 0 0 0 0 0 0 0 0 0 0 0 0 0 0 0
0 -0 -0 -0 0 0 0 0 0 0 0 0 0 0 0 0 0 0 0 0 0 0 0 0 0 0 0 0 0 0 0 0 0 0 0 0 0 0 0 0 0 0 0 0 0 0 0 0 0 0 0 0 0 0
0 0 0 -0 -0 0 0 0 0 0 0 0 0 0 0 0 0 0 0 0 0 0 0 0 0 0 0 0 0 0 0 0 0 0 0 0 0 0 0 0 0 0 0 0 0 0 0 0 0 0 0 0 0 0
-0 0 0 -0 0 0 0 0 0 0 0 0 0 0 0 0 0 0 0 0 0 0 0 0 0 0 0 0 0 0 0 0 0 0 0 0 0 0 0 0 0 0 0 0 0 0 0 0 0 0 0 0 0 0
0 0 0 0 0 0 0 0 0 0 0 0 0 0 0 0 0 0 0 0 0 0 0 0 0 0 0 0 0 0 0 0 0 0 0 0 0 0 0 0 0 0 0 0 0 0 0 0 0 0 0 0 0 -0
-0 0 0 0 0 0 0 0 0 0 0 0 0 0 0 0 0 0 0 0 0 0 0 0 0 0 0 0 0 0 0 0 0 0 0 0 0 0 0 0 0 0 0 0 0 0 0 0 0 0 0 -0 -0 -0
0 0 0 0 0 0 0 0 0 0 0 0 0 0 0 0 0 0 0 0 0 0 0 0 0 0 0 0 0 0 0 0 0 0 0 0 0 0 0 0 0 0 0 0 0 0 0 0 0 0 -0 -0 -0 -0
0 0 0 0 0 0 0 0 0 0 0 0 0 0 0 0 0 0 0 0 0 0 0 0 0 0 0 0 0 0 0 0 0 0 0 0 0 0 0 0 0 0 0 0 0 0 0 0 -0 -0 -0 -0 0 0
0 0 0 0 0 0 0 0 0 0 0 0 0 0 0 0 0 0 0 0 0 0 0 0 0 0 0 0 0 0 0 0 0 0 0 0 0 0 0 0 0 0 0 0 0 0 -0 -0 -0 -0 0 0 0 0
0 -0 -0 0 0 0 0 0 0 0 0 0 0 0 0 0 0 0 0 0 0 0 0 0 0 0 0 0 0 0 0 0 0 0 0 0 0 0 0 0 0 0 0 0 0 -0 -0 -0 0 0 0 0 0 0
0 0 -0 0 0 0 0 0 0 0 0 0 0 0 0 0 0 0 0 0 0 0 0 0 0 0 0 0 0 0 0 0 0 0 0 0 0 0 0 0 0 0 0 0 -0 -0 0 0 0 0 0 0 0 0
0 0 0 0 0 0 0 0 0 0 0 0 0 0 0 0 0 0 0 0 0 0 0 0 0 0 0 0 0 0 0 0 0 0 0 0 0 0 0 0 0 0 0 0 0 0 0 0 0 0 0 0 0 0
0 0 0 0 0 0 0 0 0 0 0 0 0 0 0 0 0 0 0 0 0 0 0 0 0 0 0 0 0 0 0 0 0 0 0 0 0 0 0 0 0 0 0 0 0 0 0 0 0 0 0 0 0 0
0 0 0 0 0 0 0 0 0 0 0 0 0 0 0 0 0 0 0 0 0 0 0 0 0 0 0 0 0 0 0 0 0 0 0 0 0 0 0 0 0 0 -0 0 0 0 0 0 0 0 0 0 0 0
-0 0 0 0 0 0 0 0 0 0 0 0 0 0 0 0 0 0 0 0 0 0 0 0 0 0 0 0 0 0 0 0 0 0 0 0 0 0 0 0 -0 -0 -0 -0 0 0 0 0 0 0 0 0 0 0
0 0 0 0 0 0 0 0 0 0 0 0 0 0 0 0 0 0 0 0 0 0 0 0 0 0 0 0 0 -0 -0 0 0 0 0 0 0 0 0 0 0 -0 -0 -0 -0 0 0 0 0 0 0 0 0 0
0 0 0 0 0 0 0 0 0 0 0 0 0 0 0 0 0 0 0 0 0 0 0 0 0 -0 -0 -0 -0 -0 0 0 0 0 -0 -0 -0 -0 -0 -0 -0 -0 0 -0 0 0 0 0 0 0 0 0 0 0
0 0 0 0 0 0 0 0 0 0 0 0 0 0 0 0 0 0 0 0 0 -0 -0 -0 0 -0 -0 0 0 0 0 0 0 -0 0 -0 -0 -0 -0 -0 -0 -0 -0 0 0 0 0 0 0 0 0 0 0 0
0 0 0 0 0 0 0 0 0 0 0 0 0 0 0 0 0 0 0 0 -0 -0 -0 0 0 0 0 0 0 0 0 -0 0 0 0 0 0 0 0 0 0 0 0 0 0 0 0 0 0 0 0 0 0 0
-0 -0 -0 -0 -0 -0 -0 -0 -0 0 0 0 0 0 0 0 -0 0 -0 0 0 0 -0 -0 -0 -0 0 0 0 0 0 0 0 0 0 0 0 0 0 0 0 0 0 0 0 0 0 0 0 0 0 0 0 0
0 0 0 0 -0 0 0 0 -0 -0 -0 -0 -0 -0 0 0 0 0 0 -0 0 0 0 0 0 0 0 0 0 0 0 0 0 0 0 0 0 0 0 0 0 0 0 0 0 0 0 0 0 0 0 0 0 0
0 -0 -0 0 0 -0 -0 -0 -0 -0 -0 -0 -0 -0 0 0 -0 0 0 0 0 0 0 0 0 0 0 0 0 0 0 0 0 0 0 0 0 0 0 0 0 0 0 0 0 0 0 0 0 0 0 0 0 0
-0 -0 0 0 0 0 0 0 0 -0 0 0 0 0 0 0 0 0 0 0 0 0 0 0 0 0 0 0 0 0 0 0 0 0 0 0 0 0 0 0 0 0 0 0 0 0 0 0 0 0 0 0 0 0
Wind_Speed_500mb
55 56 53 57 55 49 52 52 53 50 52 49 50 62 50 50 53 55 67 59 56 34 55 38 45 48 22 24 8 9 5 5 5 3 7 7 6 8 1 6 8 10 8 7 5 5 14 11 7 8 13 40 40 39
64 64 60 59 57 57 56 57 54 53 56 56 53 51 54 70 58 52 63 68 67 55 35 27 48 70 65 57 39 32 22 16 15 5 3 2 5 3 6 6 5 4 11 7 15 12 9 21 30 60 43 41 51 41
63 66 63 63 62 63 60 61 56 57 57 54 53 50 54 56 56 57 64 63 54 54 41 47 63 75 67 58 51 43 36 38 31 42 11 7 15 7 6 12 7 10 13 20 30 30 34 58 68 55 70 66 69 53
69 68 67 66 66 66 67 66 67 62 62 62 57 54 56 54 57 59 61 63 68 34 12 33 49 63 34 43 61 74 75 38 38 37 21 10 11 16 15 17 19 17 11 11 26 36 42 56 69 66 55 53 49 44
69 70 71 71 71 69 66 67 66 65 63 60 58 54 54 57 56 55 57 65 69 53 4 9 32 42 49 46 51 54 62 65 46 24 12 15 20 18 12 11 24 30 35 19 25 52 44 49 69 48 37 36 37 46
70 69 67 67 68 71 71 72 71 67 66 64 62 58 51 50 46 48 38 66 74 72 23 6 21 44 52 51 49 49 55 55 35 19 18 36 38 22 9 13 26 47 54 60 52 70 66 62 53 53 38 37 39 43
61 62 64 64 66 67 69 68 67 68 65 64 63 63 60 54 47 56 16 8 20 60 28 7 5 18 40 42 53 56 55 35 36 30 28 42 40 26 13 27 40 42 56 62 56 57 46 36 21 29 36 44 49 53
59 61 62 63 63 63 65 66 65 65 62 59 58 53 51 50 47 57 71 65 33 52 24 6 6 3 28 19 19 31 24 26 22 22 14 17 26 23 19 30 43 55 50 40 36 31 34 36 33 33 37 45 55 62
57 59 61 60 60 58 56 58 61 61 58 57 52 48 46 52 48 53 46 44 64 50 10 10 10 9 24 20 18 19 20 7 17 10 10 16 10 14 13 30 36 31 19 20 23 25 26 28 33 36 42 47 55 65
60 57 53 55 58 55 55 57 58 56 51 51 49 31 17 28 36 24 21 23 49 26 22 5 18 5 29 24 14 10 15 7 9 12 12 10 25 47 41 36 21 22 22 21 18 15 27 36 37 43 48 52 58 68
50 53 52 51 50 50 49 56 55 50 47 54 30 24 21 22 35 19 16 12 10 5 13 15 36 6 23 7 8 15 6 5 6 9 12 5 7 8 27 26 23 20 19 20 21 24 28 36 45 52 57 61 65 69
56 49 44 47 49 46 44 41 42 47 47 44 32 34 33 21 16 11 9 7 8 11 9 9 16 29 16 22 8 11 8 5 11 5 5 5 7 14 19 20 18 17 18 19 23 27 31 36 41 50 58 63 65 67
52 53 52 46 44 48 46 44 44 45 52 41 27 22 19 16 15 15 18 6 4 5 19 17 9 24 17 22 6 9 11 11 11 5 8 10 8 15 13 12 12 13 17 20 24 31 37 43 46 49 56 56 59 63
44 45 48 49 45 43 46 46 46 42 45 25 20 14 14 10 10 8 11 10 14 16 42 26 11 7 12 7 5 6 4 7 5 7 11 5 19 16 11 8 10 14 20 27 32 38 42 46 50 51 49 50 53 55
36 38 41 43 45 41 44 45 42 47 34 14 13 13 9 6 8 15 22 18 20 23 29 10 6 11 3 5 7 4 4 9 11 10 6 15 18 11 6 9 14 20 26 32 36 41 44 46 48 51 43 41 40 41
32 32 35 40 42 43 41 39 40 46 23 13 3 7 8 8 4 8 20 14 26 36 23 8 6 7 7 6 10 11 8 11 9 5 15 17 8 5 8 12 18 25 30 34 35 38 40 39 40 42 39 33 33 32
30 39 40 36 33 32 34 39 37 19 6 6 3 12 7 10 13 16 20 21 32 25 6 5 12 16 3 5 6 8 11 5 11 18 14 7 3 5 11 15 20 24 27 28 30 28 30 29 29 30 33 31 26 22
19 16 22 27 37 36 34 35 22 7 8 7 2 2 10 11 14 15 24 33 28 17 15 8 10 5 9 10 8 5 7 18 19 16 8 5 2 6 13 17 18 20 22 22 24 24 24 25 24 26 27 25 20 14
8 18 16 19 36 28 7 6 7 8 7 7 9 9 8 11 9 12 20 34 21 16 18 10 6 7 7 3 5 10 21 16 13 13 8 6 1 4 7 9 13 15 17 19 20 21 22 19 19 20 20 19 16 14
14 8 14 24 30 10 9 10 8 12 5 7 10 8 11 9 13 15 17 20 18 14 6 5 7 8 7 11 12 15 16 14 13 13 13 8 4 4 7 11 13 15 15 17 18 19 21 18 16 15 15 15 14 14
9 7 25 42 15 14 13 8 10 8 12 8 13 6 7 12 10 6 7 13 8 2 2 6 10 15 13 12 9 10 11 10 10 10 13 16 13 12 12 12 12 14 19 22 25 27 28 28 25 22 18 16 15 15
5 11 10 14 11 11 14 12 15 11 8 10 8 6 6 4 3 3 4 2 3 2 3 7 14 11 10 11 12 11 9 11 14 16 18 18 15 11 9 9 9 13 17 20 23 26 27 27 26 23 21 20 18 17
10 6 9 10 10 11 6 9 7 6 4 5 6 4 4 1 2 3 2 1 2 6 9 11 13 13 14 14 13 14 17 18 20 21 19 14 9 4 4 6 9 11 12 14 16 19 21 21 21 22 22 20 19 18
11 8 12 11 15 6 6 7 6 6 6 6 5 4 4 2 6 6 3 6 5 13 16 14 16 18 18 18 19 20 21 22 20 16 11 7 3 1 4 6 8 10 14 15 15 15 15 17 18 18 19 19 20 20
7 20 14 12 14 6 8 6 7 6 5 2 5 2 1 1 4 1 5 4 15 24 22 20 20 18 20 24 25 23 20 17 13 10 8 5 4 5 7 9 9 8 9 10 11 13 15 17 19 21 23 23 23 24
15 16 11 2 8 6 1 5 4 4 5 5 1 3 2 5 6 8 5 4 9 24 26 27 30 28 26 24 23 19 14 10 8 9 10 12 12 13 13 10 8 7 5 7 11 14 17 20 22 24 25 27 29 28
11 7 11 14 4 5 8 9 6 6 6 4 3 3 5 3 8 7 4 8 11 17 22 23 25 23 21 21 17 12 9 6 6 7 9 11 12 12 12 11 8 6 7 10 15 19 22 25 27 29 29 28 32 36
8 14 6 16 9 10 7 4 4 3 3 3 5 4 10 11 7 1 3 12 16 24 26 27 26 24 20 17 14 10 7 5 7 8 9 9 8 9 8 8 8 9 12 16 20 24 28 31 33 35 36 37 37 38
9 15 9 8 6 8 3 4 4 2 4 5 4 4 6 6 4 3 2 12 18 24 28 29 28 24 21 18 13 10 7 7 8 9 8 8 8 7 6 8 11 16 22 26 27 30 32 33 35 39 42 45 45 44
11 16 4 2 4 1 2 2 2 2 4 6 8 9 10 9 8 12 14 13 19 21 22 22 22 22 20 18 16 15 13 13 13 15 16 13 12 15 17 20 22 26 31 35 34 31 31 34 36 38 41 43 44 45
13 8 3 2 2 1 2 7 11 12 9 6 12 11 12 13 8 6 8 14 20 24 27 28 27 25 23 19 14 13 14 16 15 14 15 18 21 22 24 26 29 33 36 38 38 39 41 43 46 50 51 52 51 52
12 7 2 5 5 6 8 9 4 3 3 3 4 6 7 8 7 7 10 3 13 19 19 21 20 15 14 16 18 18 15 15 16 17 20 21 21 22 25 28 32 36 41 45 48 51 53 56 59 59 61 61 60 60
7 7 5 6 5 6 12 15 9 8 3 4 4 7 6 6 4 13 14 12 2 8 13 15 17 19 17 13 11 11 12 10 11 14 18 23 27 31 37 42 45 49 54 57 58 59 61 62 64 64 64 65 63 59
Wind_Direction_500mb
259 258 256 255 256 259 247 250 251 251 252 253 256 246 249 246 243 238 240 234 224 236 249 238 242 231 228 217 163 198 6 283 65 98 142 241 197 224 264 257 207 185 177 222 83 30 292 203 350 150 231 299 284 295
257 256 252 252 251 254 254 249 251 249 249 248 250 248 243 249 251 249 246 243 236 232 240 246 252 254 244 246 243 220 219 169 196 115 240 50 287 346 175 240 172 271 199 190 188 218 251 267 265 290 299 287 291 282
259 258 258 255 256 253 254 253 259 255 254 250 248 254 260 254 252 247 248 249 229 231 242 238 246 250 244 236 239 232 241 238 232 236 194 216 235 153 224 241 235 244 241 257 269 263 256 268 276 281 293 285 292 292
259 257 258 256 257 258 255 253 252 253 253 252 253 253 259 257 254 252 247 247 238 240 235 244 247 242 250 238 240 241 246 241 244 234 223 222 239 215 252 254 237 236 188 218 252 261 270 268 271 278 282 289 288 282
263 261 259 256 255 257 258 257 254 252 252 251 248 250 250 258 257 254 249 246 248 230 262 249 241 237 244 241 242 245 241 241 236 234 228 243 241 239 235 244 248 231 240 232 252 263 262 273 279 284 283 284 277 283
264 264 261 258 257 256 258 257 256 253 251 250 249 248 246 254 253 251 255 254 247 246 246 223 244 232 241 244 242 232 235 234 217 224 238 241 233 204 243 246 253 254 245 243 249 263 273 274 279 283 285 284 289 295
264 264 262 260 259 259 259 256 253 250 250 249 246 246 243 248 242 233 226 263 247 224 229 240 248 210 220 225 229 228 224 221 221 236 240 247 246 225 251 258 265 259 255 259 258 260 270 272 260 270 287 296 299 301
266 265 263 261 259 258 256 254 251 247 245 244 243 242 240 242 247 245 245 245 230 204 215 214 248 276 194 187 205 218 209 209 223 227 241 231 249 231 249 254 255 257 260 252 248 259 263 276 287 291 295 299 299 302
267 268 263 258 256 254 255 251 247 243 242 239 240 233 235 233 233 242 253 255 244 219 211 185 162 232 183 198 184 177 188 190 214 216 217 201 218 226 220 244 254 244 244 251 268 276 281 286 295 300 303 308 309 309
266 266 262 260 251 252 256 248 243 237 234 235 222 210 211 210 227 228 223 217 202 210 221 202 190 197 176 173 184 157 192 213 209 226 207 222 246 250 248 250 244 249 255 269 288 279 285 292 301 305 308 310 310 311
270 262 259 257 253 253 251 239 231 230 223 217 197 191 182 172 176 187 210 213 208 208 206 178 189 140 193 149 185 201 200 211 213 241 175 217 264 200 221 220 230 242 263 279 284 287 293 298 305 307 308 310 311 313
264 265 260 253 252 249 239 224 219 220 222 213 203 180 169 175 186 201 189 181 206 217 189 151 176 186 183 198 167 194 201 185 237 120 179 229 234 197 202 210 222 242 258 271 284 291 293 296 299 301 303 307 310 311
256 255 256 258 250 243 238 235 229 225 230 202 198 164 171 173 200 187 178 218 183 169 176 171 176 169 167 196 195 188 213 221 112 142 220 220 159 178 189 203 224 247 270 282 289 294 298 301 303 304 306 310 311 310
257 257 254 250 248 241 229 225 225 221 217 200 173 196 186 173 206 174 165 179 207 197 180 170 129 166 183 178 194 221 205 132 215 222 231 223 169 173 192 223 248 269 289 298 305 306 307 308 310 312 314 312 311 311
265 255 244 243 239 234 225 218 217 216 224 229 184 191 186 136 97 155 162 153 175 176 157 121 102 173 206 210 205 197 185 225 199 224 226 157 161 180 229 274 293 303 306 308 312 314 316 315 313 311 315 312 310 310
250 251 247 240 238 229 220 220 216 220 225 227 173 96 79 88 326 162 184 184 177 166 147 132 144 165 210 210 204 213 190 219 240 195 148 159 180 253 280 299 313 315 316 316 315 314 314 316 316 316 319 317 315 313
254 254 248 233 221 213 210 211 213 216 189 117 120 122 134 131 158 169 169 166 168 162 175 168 172 203 87 197 233 194 206 217 154 147 157 188 240 285 305 316 321 318 318 317 316 319 320 320 318 322 323 328 322 318
232 249 234 220 204 204 209 197 186 140 81 55 296 102 127 118 136 159 169 163 162 188 167 192 126 169 195 193 245 192 158 146 149 160 175 200 235 315 321 330 331 329 329 330 326 325 325 329 329 333 334 335 337 340
222 218 214 209 198 189 149 68 64 96 88 102 119 137 125 121 131 160 161 171 180 165 144 137 168 203 227 189 177 175 168 165 163 170 170 166 260 340 344 349 357 354 351 348 348 349 347 340 334 335 343 350 355 3
326 275 226 191 178 130 86 47 68 87 102 133 110 100 81 85 125 132 148 159 163 158 143 181 208 182 148 143 139 154 162 168 168 146 152 149 142 76 60 51 38 31 30 30 23 21 21 23 16 11 11 11 15 21
301 279 192 180 145 89 93 89 65 84 118 93 116 104 94 111 97 140 142 157 201 139 200 170 147 139 137 153 167 171 171 173 171 175 160 150 135 109 84 68 54 44 42 39 38 37 33 29 26 26 28 32 34 37
145 122 107 93 89 83 81 62 108 105 86 104 92 74 77 90 76 211 172 106 81 110 129 144 156 152 166 176 176 173 159 153 151 150 150 147 133 117 96 70 49 39 35 34 34 32 32 31 32 33 37 40 39 37
130 91 71 64 88 66 68 97 83 55 114 127 118 118 68 116 8 41 29 287 244 195 168 159 170 172 169 167 162 154 146 143 141 141 141 140 136 112 29 1 7 15 17 18 19 24 22 22 25 28 30 31 31 30
106 61 42 47 44 85 98 51 72 84 86 47 65 68 352 295 2 39 260 271 201 178 173 175 175 173 166 158 152 147 146 147 145 147 152 162 185 305 322 329 334 344 2 7 7 8 9 12 13 12 12 12 11 11
94 11 17 15 27 54 55 33 360 62 90 15 96 45 303 359 69 13 236 259 188 183 180 179 178 181 165 153 149 148 149 148 151 160 172 197 251 282 306 319 324 330 347 3 8 15 17 16 14 12 9 7 5 2
67 5 38 306 347 79 206 81 47 149 122 68 44 296 15 80 63 255 238 226 210 200 197 190 178 171 170 166 164 163 169 188 219 247 256 258 261 271 284 282 297 314 347 16 22 18 14 12 8 6 4 359 355 352
60 337 16 28 15 79 66 57 86 77 72 121 230 64 69 102 245 253 240 210 188 183 177 175 177 173 168 173 181 190 195 217 249 266 286 287 284 278 271 265 279 287 315 334 343 346 347 348 348 347 346 348 344 341
72 26 64 339 24 33 121 63 60 103 218 171 115 169 175 195 230 219 215 185 172 170 168 166 169 177 188 193 193 205 220 250 289 300 290 299 292 284 275 260 266 288 306 316 323 326 328 329 331 332 334 335 338 335
39 357 358 16 16 43 67 125 196 130 142 179 155 246 251 246 241 219 204 193 189 183 184 186 189 194 199 201 212 225 249 271 288 303 306 306 308 311 298 296 298 303 306 310 313 315 315 317 320 323 328 329 329 327
3 359 10 49 77 356 333 77 98 178 234 255 277 285 276 273 271 266 254 231 207 203 200 201 207 211 211 222 232 243 256 272 285 293 299 300 294 300 307 305 301 299 298 301 305 305 304 305 308 311 315 319 321 320
343 336 344 43 207 54 336 307 292 279 262 264 253 258 279 302 333 357 234 208 199 202 209 213 216 218 224 236 251 265 268 276 286 292 295 298 300 303 303 300 298 295 295 296 297 298 300 301 304 306 308 310 314 315
339 24 60 357 321 349 342 346 305 287 258 268 268 299 311 310 310 41 24 246 227 225 225 226 230 236 252 250 249 260 274 276 286 289 294 304 309 310 306 304 303 300 298 297 296 296 297 298 299 301 303 305 306 307
321 341 343 330 347 12 354 346 20 353 302 323 345 337 333 327 275 23 20 9 350 196 206 212 211 216 230 246 260 265 269 274 283 299 304 306 307 306 306 306 304 303 301 298 295 293 293 293 294 296 297 299 301 303
Wind_Speed_850mb
55 56 53 57 55 49 52 52 53 50 52 49 50 62 50 50 53 55 67 59 56 34 55 38 45 48 22 24 8 9 5 5 5 3 7 7 6 8 1 6 8 10 8 7 5 5 14 11 7 8 13 40 40 39
64 64 60 59 57 57 56 57 54 53 56 56 53 51 54 70 58 52 63 68 67 55 35 27 48 70 65 57 39 32 22 16 15 5 3 2 5 3 6 6 5 4 11 7 15 12 9 21 30 60 43 41 51 41
63 66 63 63 62 63 60 61 56 57 57 54 53 50 54 56 56 57 64 63 54 54 41 47 63 75 67 58 51 43 36 38 31 42 11 7 15 7 6 12 7 10 13 20 30 30 34 58 68 55 70 66 69 53
69 68 67 66 66 66 67 66 67 62 62 62 57 54 56 54 57 59 61 63 68 34 12 33 49 63 34 43 61 74 75 38 38 37 21 10 11 16 15 17 19 17 11 11 26 36 42 56 69 66 55 53 49 44
69 70 71 71 71 69 66 67 66 65 63 60 58 54 54 57 56 55 57 65 69 53 4 9 32 42 49 46 51 54 62 65 46 24 12 15 20 18 12 11 24 30 35 19 25 52 44 49 69 48 37 36 37 46
70 69 67 67 68 71 71 72 71 67 66 64 62 58 51 50 46 48 38 66 74 72 23 6 21 44 52 51 49 49 55 55 35 19 18 36 38 22 9 13 26 47 54 60 52 70 66 62 53 53 38 37 39 43
61 62 64 64 66 67 69 68 67 68 65 64 63 63 60 54 47 56 16 8 20 60 28 7 5 18 40 42 53 56 55 35 36 30 28 42 40 26 13 27 40 42 56 62 56 57 46 36 21 29 36 44 49 53
59 61 62 63 63 63 65 66 65 65 62 59 58 53 51 50 47 57 71 65 33 52 24 6 6 3 28 19 19 31 24 26 22 22 14 17 26 23 19 30 43 55 50 40 36 31 34 36 33 33 37 45 55 62
57 59 61 60 60 58 56 58 61 61 58 57 52 48 46 52 48 53 46 44 64 50 10 10 10 9 24 20 18 19 20 7 17 10 10 16 10 14 13 30 36 31 19 20 23 25 26 28 33 36 42 47 55 65
60 57 53 55 58 55 55 57 58 56 51 51 49 31 17 28 36 24 21 23 49 26 22 5 18 5 29 24 14 10 15 7 9 12 12 10 25 47 41 36 21 22 22 21 18 15 27 36 37 43 48 52 58 68
50 53 52 51 50 50 49 56 55 50 47 54 30 24 21 22 35 19 16 12 10 5 13 15 36 6 23 7 8 15 6 5 6 9 12 5 7 8 27 26 23 20 19 20 21 24 28 36 45 52 57 61 65 69
56 49 44 47 49 46 44 41 42 47 47 44 32 34 33 21 16 11 9 7 8 11 9 9 16 29 16 22 8 11 8 5 11 5 5 5 7 14 19 20 18 17 18 19 23 27 31 36 41 50 58 63 65 67
52 53 52 46 44 48 46 44 44 45 52 41 27 22 19 16 15 15 18 6 4 5 19 17 9 24 17 22 6 9 11 11 11 5 8 10 8 15 13 12 12 13 17 20 24 31 37 43 46 49 56 56 59 63
44 45 48 49 45 43 46 46 46 42 45 25 20 14 14 10 10 8 11 10 14 16 42 26 11 7 12 7 5 6 4 7 5 7 11 5 19 16 11 8 10 14 20 27 32 38 42 46 50 51 49 50 53 55
36 38 41 43 45 41 44 45 42 47 34 14 13 13 9 6 8 15 22 18 20 23 29 10 6 11 3 5 7 4 4 9 11 10 6 15 18 11 6 9 14 20 26 32 36 41 44 46 48 51 43 41 40 41
32 32 35 40 42 43 41 39 40 46 23 13 3 7 8 8 4 8 20 14 26 36 23 8 6 7 7 6 10 11 8 11 9 5 15 17 8 5 8 12 18 25 30 34 35 38 40 39 40 42 39 33 33 32
30 39 40 36 33 32 34 39 37 19 6 6 3 12 7 10 13 16 20 21 32 25 6 5 12 16 3 5 6 8 11 5 11 18 14 7 3 5 11 15 20 24 27 28 30 28 30 29 29 30 33 31 26 22
19 16 22 27 37 36 34 35 22 7 8 7 2 2 10 11 14 15 24 33 28 17 15 8 10 5 9 10 8 5 7 18 19 16 8 5 2 6 13 17 18 20 22 22 24 24 24 25 24 26 27 25 20 14
8 18 16 19 36 28 7 6 7 8 7 7 9 9 8 11 9 12 20 34 21 16 18 10 6 7 7 3 5 10 21 16 13 13 8 6 1 4 7 9 13 15 17 19 20 21 22 19 19 20 20 19 16 14
14 8 14 24 30 10 9 10 8 12 5 7 10 8 11 9 13 15 17 20 18 14 6 5 7 8 7 11 12 15 16 14 13 13 13 8 4 4 7 11 13 15 15 17 18 19 21 18 16 15 15 15 14 14
9 7 25 42 15 14 13 8 10 8 12 8 13 6 7 12 10 6 7 13 8 2 2 6 10 15 13 12 9 10 11 10 10 10 13 16 13 12 12 12 12 14 19 22 25 27 28 28 25 22 18 16 15 15
5 11 10 14 11 11 14 12 15 11 8 10 8 6 6 4 3 3 4 2 3 2 3 7 14 11 10 11 12 11 9 11 14 16 18 18 15 11 9 9 9 13 17 20 23 26 27 27 26 23 21 20 18 17
10 6 9 10 10 11 6 9 7 6 4 5 6 4 4 1 2 3 2 1 2 6 9 11 13 13 14 14 13 14 17 18 20 21 19 14 9 4 4 6 9 11 12 14 16 19 21 21 21 22 22 20 19 18
11 8 12 11 15 6 6 7 6 6 6 6 5 4 4 2 6 6 3 6 5 13 16 14 16 18 18 18 19 20 21 22 20 16 11 7 3 1 4 6 8 10 14 15 15 15 15 17 18 18 19 19 20 20
7 20 14 12 14 6 8 6 7 6 5 2 5 2 1 1 4 1 5 4 15 24 22 20 20 18 20 24 25 23 20 17 13 10 8 5 4 5 7 9 9 8 9 10 11 13 15 17 19 21 23 23 23 24
15 16 11 2 8 6 1 5 4 4 5 5 1 3 2 5 6 8 5 4 9 24 26 27 30 28 26 24 23 19 14 10 8 9 10 12 12 13 13 10 8 7 5 7 11 14 17 20 22 24 25 27 29 28
11 7 11 14 4 5 8 9 6 6 6 4 3 3 5 3 8 7 4 8 11 17 22 23 25 23 21 21 17 12 9 6 6 7 9 11 12 12 12 11 8 6 7 10 15 19 22 25 27 29 29 28 32 36
8 14 6 16 9 10 7 4 4 3 3 3 5 4 10 11 7 1 3 12 16 24 26 27 26 24 20 17 14 10 7 5 7 8 9 9 8 9 8 8 8 9 12 16 20 24 28 31 33 35 36 37 37 38
9 15 9 8 6 8 3 4 4 2 4 5 4 4 6 6 4 3 2 12 18 24 28 29 28 24 21 18 13 10 7 7 8 9 8 8 8 7 6 8 11 16 22 26 27 30 32 33 35 39 42 45 45 44
11 16 4 2 4 1 2 2 2 2 4 6 8 9 10 9 8 12 14 13 19 21 22 22 22 22 20 18 16 15 13 13 13 15 16 13 12 15 17 20 22 26 31 35 34 31 31 34 36 38 41 43 44 45
13 8 3 2 2 1 2 7 11 12 9 6 12 11 12 13 8 6 8 14 20 24 27 28 27 25 23 19 14 13 14 16 15 14 15 18 21 22 24 26 29 33 36 38 38 39 41 43 46 50 51 52 51 52
12 7 2 5 5 6 8 9 4 3 3 3 4 6 7 8 7 7 10 3 13 19 19 21 20 15 14 16 18 18 15 15 16 17 20 21 21 22 25 28 32 36 41 45 48 51 53 56 59 59 61 61 60 60
7 7 5 6 5 6 12 15 9 8 3 4 4 7 6 6 4 13 14 12 2 8 13 15 17 19 17 13 11 11 12 10 11 14 18 23 27 31 37 42 45 49 54 57 58 59 61 62 64 64 64 65 63 59
Wind_Direction_850mb
259 258 256 255 256 259 247 250 251 251 252 253 256 246 249 246 243 238 240 234 224 236 249 238 242 231 228 217 163 198 6 283 65 98 142 241 197 224 264 257 207 185 177 222 83 30 292 203 350 150 231 299 284 295
257 256 252 252 251 254 254 249 251 249 249 248 250 248 243 249 251 249 246 243 236 232 240 246 252 254 244 246 243 220 219 169 196 115 240 50 287 346 175 240 172 271 199 190 188 218 251 267 265 290 299 287 291 282
259 258 258 255 256 253 254 253 259 255 254 250 248 254 260 254 252 247 248 249 229 231 242 238 246 250 244 236 239 232 241 238 232 236 194 216 235 153 224 241 235 244 241 257 269 263 256 268 276 281 293 285 292 292
259 257 258 256 257 258 255 253 252 253 253 252 253 253 259 257 254 252 247 247 238 240 235 244 247 242 250 238 240 241 246 241 244 234 223 222 239 215 252 254 237 236 188 218 252 261 270 268 271 278 282 289 288 282
263 261 259 256 255 257 258 257 254 252 252 251 248 250 250 258 257 254 249 246 248 230 262 249 241 237 244 241 242 245 241 241 236 234 228 243 241 239 235 244 248 231 240 232 252 263 262 273 279 284 283 284 277 283
264 264 261 258 257 256 258 257 256 253 251 250 249 248 246 254 253 251 255 254 247 246 246 223 244 232 241 244 242 232 235 234 217 224 238 241 233 204 243 246 253 254 245 243 249 263 273 274 279 283 285 284 289 295
264 264 262 260 259 259 259 256 253 250 250 249 246 246 243 248 242 233 226 263 247 224 229 240 248 210 220 225 229 228 224 221 221 236 240 247 246 225 251 258 265 259 255 259 258 260 270 272 260 270 287 296 299 301
266 265 263 261 259 258 256 254 251 247 245 244 243 242 240 242 247 245 245 245 230 204 215 214 248 276 194 187 205 218 209 209 223 227 241 231 249 231 249 254 255 257 260 252 248 259 263 276 287 291 295 299 299 302
267 268 263 258 256 254 255 251 247 243 242 239 240 233 235 233 233 242 253 255 244 219 211 185 162 232 183 198 184 177 188 190 214 216 217 201 218 226 220 244 254 244 244 251 268 276 281 286 295 300 303 308 309 309
266 266 262 260 251 252 256 248 243 237 234 235 222 210 211 210 227 228 223 217 202 210 221 202 190 197 176 173 184 157 192 213 209 226 207 222 246 250 248 250 244 249 255 269 288 279 285 292 301 305 308 310 310 311
270 262 259 257 253 253 251 239 231 230 223 217 197 191 182 172 176 187 210 213 208 208 206 178 189 140 193 149 185 201 200 211 213 241 175 217 264 200 221 220 230 242 263 279 284 287 293 298 305 307 308 310 311 313
264 265 260 253 252 249 239 224 219 220 222 213 203 180 169 175 186 201 189 181 206 217 189 151 176 186 183 198 167 194 201 185 237 120 179 229 234 197 202 210 222 242 258 271 284 291 293 296 299 301 303 307 310 311
256 255 256 258 250 243 238 235 229 225 230 202 198 164 171 173 200 187 178 218 183 169 176 171 176 169 167 196 195 188 213 221 112 142 220 220 159 178 189 203 224 247 270 282 289 294 298 301 303 304 306 310 311 310
257 257 254 250 248 241 229 225 225 221 217 200 173 196 186 173 206 174 165 179 207 197 180 170 129 166 183 178 194 221 205 132 215 222 231 223 169 173 192 223 248 269 289 298 305 306 307 308 310 312 314 312 311 311
265 255 244 243 239 234 225 218 217 216 224 229 184 191 186 136 97 155 162 153 175 176 157 121 102 173 206 210 205 197 185 225 199 224 226 157 161 180 229 274 293 303 306 308 312 314 316 315 313 311 315 312 310 310
250 251 247 240 238 229 220 220 216 220 225 227 173 96 79 88 326 162 184 184 177 166 147 132 144 165 210 210 204 213 190 219 240 195 148 159 180 253 280 299 313 315 316 316 315 314 314 316 316 316 319 317 315 313
254 254 248 233 221 213 210 211 213 216 189 117 120 122 134 131 158 169 169 166 168 162 175 168 172 203 87 197 233 194 206 217 154 147 157 188 240 285 305 316 321 318 318 317 316 319 320 320 318 322 323 328 322 318
232 249 234 220 204 204 209 197 186 140 81 55 296 102 127 118 136 159 169 163 162 188 167 192 126 169 195 193 245 192 158 146 149 160 175 200 235 315 321 330 331 329 329 330 326 325 325 329 329 333 334 335 337 340
222 218 214 209 198 189 149 68 64 96 88 102 119 137 125 121 131 160 161 171 180 165 144 137 168 203 227 189 177 175 168 165 163 170 170 166 260 340 344 349 357 354 351 348 348 349 347 340 334 335 343 350 355 3
326 275 226 191 178 130 86 47 68 87 102 133 110 100 81 85 125 132 148 159 163 158 143 181 208 182 148 143 139 154 162 168 168 146 152 149 142 76 60 51 38 31 30 30 23 21 21 23 16 11 11 11 15 21
301 279 192 180 145 89 93 89 65 84 118 93 116 104 94 111 97 140 142 157 201 139 200 170 147 139 137 153 167 171 171 173 171 175 160 150 135 109 84 68 54 44 42 39 38 37 33 29 26 26 28 32 34 37
145 122 107 93 89 83 81 62 108 105 86 104 92 74 77 90 76 211 172 106 81 110 129 144 156 152 166 176 176 173 159 153 151 150 150 147 133 117 96 70 49 39 35 34 34 32 32 31 32 33 37 40 39 37
130 91 71 64 88 66 68 97 83 55 114 127 118 118 68 116 8 41 29 287 244 195 168 159 170 172 169 167 162 154 146 143 141 141 141 140 136 112 29 1 7 15 17 18 19 24 22 22 25 28 30 31 31 30
106 61 42 47 44 85 98 51 72 84 86 47 65 68 352 295 2 39 260 271 201 178 173 175 175 173 166 158 152 147 146 147 145 147 152 162 185 305 322 329 334 344 2 7 7 8 9 12 13 12 12 12 11 11
94 11 17 15 27 54 55 33 360 62 90 15 96 45 303 359 69 13 236 259 188 183 180 179 178 181 165 153 149 148 149 148 151 160 172 197 251 282 306 319 324 330 347 3 8 15 17 16 14 12 9 7 5 2
67 5 38 306 347 79 206 81 47 149 122 68 44 296 15 80 63 255 238 226 210 200 197 190 178 171 170 166 164 163 169 188 219 247 256 258 261 271 284 282 297 314 347 16 22 18 14 12 8 6 4 359 355 352
60 337 16 28 15 79 66 57 86 77 72 121 230 64 69 102 245 253 240 210 188 183 177 175 177 173 168 173 181 190 195 217 249 266 286 287 284 278 271 265 279 287 315 334 343 346 347 348 348 347 346 348 344 341
72 26 64 339 24 33 121 63 60 103 218 171 115 169 175 195 230 219 215 185 172 170 168 166 169 177 188 193 193 205 220 250 289 300 290 299 292 284 275 260 266 288 306 316 323 326 328 329 331 332 334 335 338 335
39 357 358 16 16 43 67 125 196 130 142 179 155 246 251 246 241 219 204 193 189 183 184 186 189 194 199 201 212 225 249 271 288 303 306 306 308 311 298 296 298 303 306 310 313 315 315 317 320 323 328 329 329 327
3 359 10 49 77 356 333 77 98 178 234 255 277 285 276 273 271 266 254 231 207 203 200 201 207 211 211 222 232 243 256 272 285 293 299 300 294 300 307 305 301 299 298 301 305 305 304 305 308 311 315 319 321 320
343 336 344 43 207 54 336 307 292 279 262 264 253 258 279 302 333 357 234 208 199 202 209 213 216 218 224 236 251 265 268 276 286 292 295 298 300 303 303 300 298 295 295 296 297 298 300 301 304 306 308 310 314 315
339 24 60 357 321 349 342 346 305 287 258 268 268 299 311 310 310 41 24 246 227 225 225 226 230 236 252 250 249 260 274 276 286 289 294 304 309 310 306 304 303 300 298 297 296 296 297 298 299 301 303 305 306 307
321 341 343 330 347 12 354 346 20 353 302 323 345 337 333 327 275 23 20 9 350 196 206 212 211 216 230 246 260 265 269 274 283 299 304 306 307 306 306 306 304 303 301 298 295 293 293 293 294 296 297 299 301 303